Flag for United Kingdom Weather past 2 weeks in Brentwood, England, United Kingdom

Now
53 °F

Cool.


Feels Like: 52 °F
Forecast: 64 / 77 °F
Wind: 5 mph from Southwest

Location: Gravesend-Broadness

Current Time: Aug 2, 2015 at 5:23:16 AM

Latest Report: Aug 2, 2015 at 3:00 AM


Visibility: N/A

Pressure: 30.07 "Hg

Humidity: 90%

Dew point: 50 °F

Location of BrentwoodLocation

Historic Weather in Brentwood — Graph

°F

Brentwood temperature yesterday

Maximum temperature yesterday: 71 °F (at 4:00 PM)
Minimum temperature yesterday: 44 °F (at 6:00 AM)
Average temperature yesterday: 61 °F

Past Weeks' High & Low Weather Summary

 TemperatureHumidityPressure
High76 °F (Jul 21, 12:00 PM)96% (Jul 31, 7:00 AM)30.14 "Hg (Jul 31, 7:00 AM)
Low43 °F (Jul 31, 6:00 AM)28% (Jul 18, 5:00 PM)29.41 "Hg (Jul 26, 8:00 PM)
Average62 °F67%29.87 "Hg
* Reported Jul 18 3:00 AM — Aug 2 3:00 AM, Brentwood, Weather by CustomWeather, © 2015

Note: Actual official high and low records may vary slightly from our data, if they occured in-between our weather recording intervals... More about our weather records

Advertising

Brentwood weather history for previous 24 hours

 ConditionsComfort  
Time TempWeatherWind HumidityBarometerVisibility
3:00 AM
Sun, Aug 2
53 °FCool.5 mph90%30.07 "HgN/A
2:00 AM56 °FCool.5 mph86%30.08 "HgN/A
11:00 PM
Sat, Aug 1
59 °FCool.6 mph73%30.06 "HgN/A
9:00 PM63 °FMild.7 mph58%30.02 "HgN/A
8:00 PM67 °FMild.10 mph51%30.01 "HgN/A
6:00 PM69 °FMild.12 mph46%30.00 "HgN/A
5:00 PM71 °FMild.13 mph39%30.00 "HgN/A
4:00 PM71 °FMild.9 mph40%30.00 "HgN/A
3:00 PM71 °FMild.13 mph37%29.99 "HgN/A
2:00 PM71 °FMild.7 mph34%29.99 "HgN/A
1:00 PM70 °FMild.7 mph37%30.00 "HgN/A
12:00 PM68 °FMild.6 mph42%30.01 "HgN/A
11:00 AM65 °FMild.5 mph52%30.01 "HgN/A
10:00 AM63 °FMild.5 mph57%30.01 "HgN/A
9:00 AM60 °FCool.5 mph63%30.01 "HgN/A
8:00 AM56 °FCool.6 mph75%30.00 "HgN/A
7:00 AM53 °FCool.7 mph90%30.00 "HgN/A
6:00 AM44 °FQuite cool.3 mph94%29.99 "HgN/A
Weather by CustomWeather, © 2015

See weather overviewHow to use our weather pages